User: anonymous   Login
Location: Unspecified
(0.0000°N, 0.0000°E)
Time: 03:27:09
(UTC+00:00)
Language:

USA 198 - Orbit

View from above orbital plane
View from above orbital plane
View from above satellite
View from above satellite

Ground track
Ground track

The orbit data is extracted from the following two-line orbital elements,

1 32378U 07060A   17316.38538903 0.00000000  00000-0  00000-0 0    06
2 32378  64.0444 192.7457 6991704 265.5742  18.7084  2.00616000    02
Epoch (UTC): 12 November 2017 09:14:57
Eccentricity: 0.6991704
inclination: 64.0444°
perigee height: 1610 km
apogee height: 38744 km
right ascension of ascending node: 192.7457°
argument of perigee: 265.5742°
revolutions per day: 2.00616000
mean anomaly at epoch: 18.7084°
orbit number at epoch: 0

The dashed part of the orbit path shows where the satellite is in the earth's shadow,  

DLR